[[{"header":{"parameterUnit":"m.s-1","parameterCategory":1,"la1":30.2991,"la2":30.254,"lo1":-89.0895,"lo2":-89.0444,"dy":0.0017,"dx":0.0017,"nx":28,"ny":28,"refTime":"2024-07-19T21:00:00:Z","depth":0,"parameterNumber":2,"parameterNumberName":"U-component_of_WINDS"},"data":[0,0,0,0,0,0,0,0,0,0,0,0,0,0,0,0,0,0,0,0,0,0,0,0,0,0,0,0,0,0,0,0,0,0,0,0,0,0,0,0,0,0,0,0,0,0,0,0,0,0,0,0,0,0,0,0,0,0,1.3772,1.3771,0,1.3687,1.3686,1.3685,1.3629,1.3629,1.3629,1.3628,1.3542,1.354,1.3538,0,0,0,0,0,0,0,0,0,0,0,0,0,1.3887,1.3885,1.3772,1.3771,1.377,1.3687,1.3686,1.3685,1.3629,1.3629,1.3628,1.3628,1.3543,1.3541,1.3538,0,0,0,0,0,0,0,0,0,0,0,0,0,1.3823,1.3885,1.3773,1.3732,1.3728,1.3687,1.3686,1.3685,1.3629,1.3629,1.3628,1.3628,1.3544,1.3541,1.3538,1.3531,0,0,1.3529,1.3528,0,0,0,0,0,0,0,0,1.3827,1.3819,1.3739,1.3735,1.373,1.3668,1.3695,1.3633,1.363,1.3667,1.3628,1.3628,1.3585,1.3578,1.3564,1.3527,1.3523,1.3529,1.3527,1.3526,1.3525,0,0,0,0,0,0,0,1.3831,1.3822,1.3739,1.3738,1.3733,1.3719,1.3709,1.3683,1.363,1.3664,1.3659,1.365,1.3582,1.3567,1.3561,1.3522,1.3529,1.3526,1.3524,1.3523,1.3472,1.3473,0,0,0,0,0,0,1.3842,1.3826,1.3741,1.3736,1.3778,1.3717,1.3706,1.3689,1.363,1.3621,1.3651,1.3648,1.3572,1.3565,1.3558,1.3544,1.3526,1.3523,1.3521,1.3472,1.3473,1.3473,0,0,0,0,0,0,1.3845,1.3835,1.3745,1.378,1.3767,1.3716,1.3696,1.3687,1.3672,1.362,1.361,1.3644,1.3571,1.3562,1.3537,1.354,1.3522,1.3519,1.3472,1.3472,1.3473,1.3518,0,0,0,0,0,0,1.3848,1.3836,1.3833,1.378,1.3766,1.3726,1.3697,1.3686,1.3667,1.3662,1.3612,1.3603,1.357,1.3542,1.3534,1.3536,1.3517,1.3471,1.3472,1.3473,1.3516,1.352,1.3523,0,0,0,0,0,1.3853,1.385,1.3833,1.3823,1.3761,1.3726,1.3718,1.3679,1.3667,1.3663,1.363,1.3605,1.3541,1.354,1.3531,1.3532,1.3471,1.3472,1.3473,1.3514,1.3519,1.3523,0,0,0,0,0,0,1.3906,1.3842,1.3823,1.3804,1.377,1.3717,1.3711,1.3686,1.3656,1.3654,1.3608,1.3597,1.3576,1.3552,1.3551,1.3521,1.3503,1.3502,1.3537,1.3542,1.3545,1.3551,1.3514,0,0,0,0,0,1.3915,1.3892,1.3838,1.3826,1.381,1.3763,1.3747,1.372,1.3684,1.367,1.3635,1.3601,1.3573,1.3556,1.3528,1.3512,1.3499,1.3508,1.3512,1.3515,1.3515,1.3502,1.3505,1.3476,1.3476,1.3476,0,0,1.3934,1.3897,1.3885,1.3835,1.3807,1.3783,1.3752,1.373,1.3712,1.3667,1.3641,1.3614,1.3573,1.3552,1.3541,1.3531,1.352,1.3516,1.3519,1.3517,1.3503,1.3506,1.3509,1.3477,1.3477,1.3476,0,0,1.3957,1.3927,1.3912,1.3883,1.384,1.3809,1.3805,1.3755,1.3735,1.3708,1.3673,1.3651,1.3605,1.3577,1.3556,1.3567,1.3542,1.3559,1.3578,1.3567,1.3569,1.3571,1.3573,1.3574,1.3559,1.3559,1.3559,0,1.3986,1.3949,1.3908,1.3886,1.3865,1.3822,1.3807,1.3781,1.3731,1.3717,1.3707,1.3646,1.3616,1.3587,1.3589,1.3574,1.3568,1.3564,1.3572,1.3573,1.3574,1.3576,1.3577,1.3561,1.3561,1.3561,1.356,0,1.3987,1.3962,1.3956,1.3907,1.3885,1.3867,1.3822,1.3805,1.3779,1.3749,1.3721,1.3683,1.3646,1.3637,1.3613,1.3604,1.3599,1.3581,1.3562,1.358,1.3581,1.3581,1.3564,1.3564,1.3563,1.3562,0,0,1.4041,1.3968,1.3967,1.3943,1.3891,1.3871,1.3851,1.3813,1.3798,1.3765,1.3746,1.3707,1.3689,1.3666,1.3638,1.3628,1.3636,1.3611,1.3609,1.3616,1.3622,1.3636,1.3637,1.362,1.362,1.362,1.3625,0,1.4055,1.4015,1.3977,1.3951,1.3926,1.3885,1.3867,1.3833,1.3804,1.3779,1.3747,1.3719,1.3698,1.3684,1.3672,1.3638,1.3637,1.3637,1.3601,1.36,1.3611,1.3637,1.3652,1.3659,1.3625,1.3625,1.3625,0,1.4066,1.4033,1.4005,1.3953,1.3941,1.3926,1.3887,1.3864,1.3824,1.3804,1.3777,1.3747,1.3723,1.3707,1.3672,1.3673,1.3655,1.3636,1.3635,1.363,1.3613,1.3632,1.366,1.3661,1.3626,1.3626,1.3626,0,1.4107,1.4055,1.4031,1.4012,1.3952,1.3942,1.3917,1.3876,1.3855,1.3822,1.3808,1.3772,1.3753,1.3726,1.3686,1.3679,1.3655,1.3636,1.3636,1.3637,1.3633,1.3634,1.3658,1.3624,1.3624,1.3624,1.3624,0,1.4126,1.411,1.4048,1.4033,1.4013,1.3969,1.395,1.3921,1.3885,1.3863,1.3826,1.3806,1.3756,1.373,1.37,1.3674,1.3666,1.3648,1.364,1.3651,1.3653,1.3639,1.3637,1.3624,1.3624,1.3624,1.3624,0,1.4168,1.4126,1.4096,1.4041,1.4027,1.4015,1.3968,1.3951,1.3919,1.3892,1.3883,1.3834,1.3801,1.3759,1.3714,1.3693,1.3671,1.3659,1.3684,1.3679,1.3681,1.3681,1.3697,1.3696,1.3663,1.3664,1.3664,0,1.4182,1.4168,1.4111,1.4094,1.4069,1.4041,1.402,1.3975,1.3954,1.3906,1.3895,1.386,1.3829,1.3778,1.3738,1.3703,1.3689,1.3697,1.3684,1.3694,1.3688,1.3688,1.3686,1.37,1.3701,1.3701,1.3702,0,1.4212,1.4191,1.4161,1.4123,1.4098,1.4066,1.4033,1.4021,1.3969,1.3947,1.3913,1.3889,1.3841,1.3806,1.3765,1.3739,1.3711,1.3706,1.3704,1.3715,1.3729,1.372,1.3692,1.3706,1.3706,1.3705,1.3705,1.3705,1.4239,1.4224,1.4181,1.4149,1.4118,1.4088,1.4069,1.4034,1.4005,1.3962,1.3938,1.3904,1.3863,1.3805,1.3779,1.3752,1.3742,1.3739,1.3738,1.3738,1.3741,1.3734,1.3744,1.3744,1.3744,1.3744,1.3744,0,1.4265,1.4235,1.4206,1.4159,1.4133,1.4109,1.4071,1.4051,1.4021,1.3985,1.3955,1.3914,1.3879,1.3836,1.3798,1.3784,1.3771,1.3776,1.3776,1.377,1.3753,1.3758,1.3787,1.3787,1.3787,1.3787,1.3787,1.3787,1.4276,1.4249,1.4223,1.4181,1.4151,1.4117,1.4096,1.4068,1.4038,1.3995,1.3965,1.3937,1.3897,1.3856,1.3822,1.381,1.3797,1.3806,1.379,1.3775,1.3771,1.3768,1.3772,1.3804,1.3804,1.3809,1.3809,1.3809]},{"header":{"parameterUnit":"m.s-1","parameterCategory":1,"la1":30.2991,"la2":30.254,"lo1":-89.0895,"lo2":-89.0444,"dy":0.0017,"dx":0.0017,"nx":28,"ny":28,"refTime":"2024-07-19T21:00:00:Z","depth":0,"parameterNumber":3,"parameterNumberName":"V-component_of_WINDS"},"data":[0,0,0,0,0,0,0,0,0,0,0,0,0,0,0,0,0,0,0,0,0,0,0,0,0,0,0,0,0,0,0,0,0,0,0,0,0,0,0,0,0,0,0,0,0,0,0,0,0,0,0,0,0,0,0,0,0,0,2.5006,2.5006,0,2.498,2.498,2.498,2.4994,2.4994,2.4995,2.4996,2.4965,2.4964,2.4962,0,0,0,0,0,0,0,0,0,0,0,0,0,2.5063,2.5062,2.5006,2.5005,2.5005,2.498,2.498,2.498,2.4994,2.4994,2.4995,2.4996,2.4966,2.4964,2.4962,0,0,0,0,0,0,0,0,0,0,0,0,0,2.5037,2.5061,2.5006,2.5009,2.5009,2.498,2.498,2.4979,2.4993,2.4995,2.4996,2.4997,2.4966,2.4964,2.4962,2.4927,0,0,2.4955,2.4954,0,0,0,0,0,0,0,0,2.5039,2.5035,2.5009,2.5009,2.5009,2.4991,2.4989,2.4962,2.4993,2.4999,2.4996,2.4997,2.4973,2.497,2.4963,2.4925,2.4924,2.4955,2.4953,2.4953,2.4952,0,0,0,0,0,0,0,2.5041,2.5036,2.4996,2.5009,2.5009,2.5011,2.5008,2.4984,2.498,2.4999,2.5,2.4997,2.4973,2.4965,2.4962,2.4923,2.4955,2.4953,2.4952,2.4951,2.4854,2.4853,0,0,0,0,0,0,2.5043,2.5038,2.4996,2.4995,2.5027,2.5009,2.5006,2.4996,2.4981,2.4979,2.4996,2.4998,2.4968,2.4965,2.4961,2.4918,2.4953,2.495,2.4949,2.4856,2.4854,2.4853,0,0,0,0,0,0,2.5044,2.5039,2.4997,2.5017,2.5012,2.5007,2.4995,2.4995,2.4987,2.4978,2.4977,2.4989,2.4969,2.4964,2.4935,2.4917,2.4949,2.4947,2.4857,2.4855,2.4854,2.4831,0,0,0,0,0,0,2.5045,2.5039,2.5027,2.5016,2.501,2.4973,2.4994,2.4994,2.4983,2.4985,2.4971,2.497,2.4969,2.4938,2.4933,2.4914,2.4946,2.4859,2.4856,2.4854,2.4834,2.4829,2.4825,0,0,0,0,0,2.5047,2.5021,2.5026,2.5021,2.4995,2.4972,2.4968,2.497,2.4982,2.4969,2.4963,2.497,2.492,2.4935,2.4929,2.491,2.486,2.4857,2.4854,2.4835,2.483,2.4825,0,0,0,0,0,0,2.5027,2.5019,2.5025,2.4995,2.4984,2.4974,2.4958,2.4964,2.4948,2.495,2.4951,2.4948,2.4918,2.4911,2.4928,2.4874,2.4892,2.4888,2.4879,2.4874,2.487,2.4871,2.4944,0,0,0,0,0,2.502,2.5003,2.4997,2.497,2.4965,2.4962,2.4952,2.4954,2.4943,2.4938,2.493,2.4917,2.4899,2.4886,2.4869,2.4833,2.4829,2.4817,2.4813,2.4809,2.4805,2.4784,2.4778,2.4844,2.4844,2.4844,0,0,2.5003,2.4997,2.4986,2.4966,2.4958,2.4939,2.4958,2.4938,2.4923,2.4934,2.4906,2.49,2.4886,2.4854,2.4839,2.4847,2.4786,2.4806,2.4803,2.48,2.4781,2.4775,2.4769,2.4842,2.4842,2.4843,0,0,2.4962,2.4957,2.4934,2.4926,2.4914,2.4913,2.4907,2.4897,2.4894,2.4866,2.4874,2.4856,2.4825,2.4814,2.4804,2.4761,2.4766,2.4755,2.4731,2.4711,2.4706,2.4701,2.4684,2.4678,2.4751,2.4751,2.4751,0,2.4942,2.4916,2.4921,2.49,2.489,2.4901,2.4877,2.4868,2.4851,2.4843,2.4854,2.4814,2.4805,2.4769,2.4759,2.4751,2.4743,2.4755,2.4707,2.4702,2.4698,2.4681,2.4675,2.475,2.475,2.475,2.475,0,2.4891,2.4873,2.4856,2.484,2.4829,2.4806,2.4806,2.4793,2.4797,2.4794,2.4765,2.4755,2.4735,2.4728,2.473,2.4692,2.4697,2.4707,2.4724,2.469,2.4675,2.4668,2.4748,2.4748,2.4749,2.4749,0,0,2.4836,2.4824,2.4817,2.481,2.4799,2.4783,2.4761,2.4743,2.4732,2.472,2.47,2.4673,2.4682,2.4671,2.4673,2.4656,2.462,2.4667,2.4667,2.4657,2.4575,2.4566,2.4559,2.4624,2.4623,2.4622,2.4576,0,2.4793,2.4755,2.4759,2.4722,2.4705,2.4715,2.4695,2.4685,2.4682,2.4665,2.4662,2.4642,2.4657,2.465,2.4634,2.4628,2.4603,2.4631,2.4603,2.4602,2.4605,2.4551,2.4542,2.4498,2.457,2.4569,2.4568,0,2.4738,2.4726,2.4688,2.4679,2.4671,2.4653,2.4637,2.4622,2.461,2.4609,2.4597,2.4602,2.4578,2.4597,2.4563,2.4582,2.4571,2.4566,2.4565,2.456,2.4582,2.4543,2.4485,2.4478,2.4559,2.456,2.456,0,2.4699,2.4673,2.4646,2.464,2.4629,2.4617,2.4611,2.4601,2.459,2.4576,2.4568,2.4551,2.454,2.4526,2.4525,2.454,2.449,2.4509,2.4486,2.4486,2.4473,2.4473,2.441,2.447,2.447,2.447,2.447,0,2.465,2.4626,2.4629,2.4612,2.4585,2.4589,2.4562,2.4558,2.4549,2.453,2.4539,2.4521,2.4522,2.4504,2.4503,2.4473,2.4469,2.4466,2.4466,2.4464,2.4464,2.4455,2.4457,2.4468,2.4468,2.4469,2.4469,0,2.4601,2.4602,2.4574,2.4567,2.4564,2.4544,2.4537,2.4521,2.4519,2.4496,2.4491,2.4487,2.4466,2.4465,2.444,2.4439,2.4403,2.4407,2.4407,2.4407,2.4383,2.4385,2.431,2.4299,2.4368,2.4367,2.4367,0,2.4568,2.455,2.4541,2.4531,2.4525,2.4507,2.4497,2.45,2.4488,2.4474,2.4459,2.4439,2.4423,2.4389,2.4383,2.4364,2.4366,2.4341,2.4363,2.4361,2.4363,2.4363,2.436,2.4336,2.4335,2.4334,2.4334,0,2.451,2.4512,2.4497,2.4482,2.4469,2.4457,2.4446,2.4436,2.4438,2.4424,2.4404,2.4392,2.4367,2.4346,2.4328,2.4321,2.4326,2.4328,2.4321,2.4318,2.4318,2.4316,2.4393,2.4329,2.4329,2.433,2.433,2.433,2.4466,2.445,2.4442,2.4425,2.4417,2.4407,2.4391,2.4388,2.4371,2.4353,2.4356,2.4332,2.4321,2.4297,2.4288,2.4269,2.4277,2.4268,2.4265,2.4262,2.4258,2.4323,2.4266,2.4266,2.4266,2.4266,2.4266,0,2.4407,2.4402,2.4387,2.4371,2.4358,2.4368,2.4356,2.4343,2.4323,2.4312,2.4297,2.4273,2.4253,2.4246,2.4227,2.4212,2.4214,2.4207,2.4207,2.4204,2.4253,2.426,2.4205,2.4205,2.4205,2.4205,2.4205,2.4205,2.4374,2.4347,2.4348,2.4317,2.4312,2.4291,2.4283,2.4273,2.4264,2.4237,2.4222,2.4218,2.4209,2.4189,2.4171,2.4169,2.416,2.4151,2.415,2.4195,2.4201,2.4207,2.4213,2.415,2.4149,2.4103,2.4102,2.4102]}]]